| time (UTC) | temp C | wind direction | speed KPH | gust KPH | rain 1hr cm | rain 24hr cm | rain mn cm | humidity % | barometer mb |
| 20260506180007 | 18 | 265 | 3.2 | 9.7 | 0.00 | 0.03 | 0.00 | 68 | 1019.0 |
| 20260506174604 | 18 | 223 | 1.6 | 9.7 | 0.00 | 0.05 | 0.00 | 69 | 1019.0 |
| 20260506173112 | 17 | 334 | 0.0 | 4.8 | 0.00 | 0.05 | 0.00 | 70 | 1019.1 |
| 20260506171559 | 17 | 334 | 0.0 | 4.8 | 0.00 | 0.05 | 0.00 | 73 | 1019.1 |
| 20260506170052 | 16 | 333 | 0.0 | 0.0 | 0.00 | 0.05 | 0.00 | 72 | 1019.3 |
| 20260506164552 | 16 | 333 | 0.0 | 3.2 | 0.00 | 0.05 | 0.00 | 76 | 1019.3 |
| 20260506163051 | 15 | 333 | 0.0 | 8.0 | 0.00 | 0.05 | 0.00 | 76 | 1019.3 |
| 20260506161550 | 15 | 333 | 1.6 | 6.4 | 0.00 | 0.05 | 0.00 | 77 | 1019.3 |
| 20260506160046 | 15 | 333 | 0.0 | 4.8 | 0.00 | 0.05 | 0.00 | 77 | 1019.3 |
| 20260506154540 | 15 | 333 | 1.6 | 4.8 | 0.00 | 0.05 | 0.00 | 78 | 1019.3 |
| 20260506153037 | 15 | 333 | 0.0 | 4.8 | 0.00 | 0.05 | 0.00 | 79 | 1019.3 |
| 20260506151549 | 15 | 333 | 0.0 | 6.4 | 0.00 | 0.05 | 0.00 | 79 | 1019.3 |
| 20260506150036 | 15 | 333 | 1.6 | 6.4 | 0.00 | 0.05 | 0.00 | 80 | 1019.3 |
| 20260506144535 | 14 | 333 | 0.0 | 3.2 | 0.00 | 0.05 | 0.00 | 81 | 1019.2 |
| 20260506143042 | 14 | 333 | 0.0 | 6.4 | 0.00 | 0.05 | 0.00 | 81 | 1019.1 |
| 20260506141530 | 14 | 333 | 0.0 | 4.8 | 0.00 | 0.05 | 0.00 | 82 | 1019.0 |
| 20260506140033 | 14 | 333 | 0.0 | 4.8 | 0.00 | 0.05 | 0.00 | 82 | 1018.9 |
| 20260506134527 | 13 | 333 | 0.0 | 6.4 | 0.00 | 0.05 | 0.00 | 82 | 1018.7 |
| 20260506133026 | 13 | 333 | 0.0 | 4.8 | 0.00 | 0.05 | 0.00 | 82 | 1018.5 |
| 20260506131526 | 13 | 333 | 0.0 | 0.0 | 0.00 | 0.05 | 0.00 | 82 | 1018.4 |
| 20260506130021 | 13 | 333 | 0.0 | 3.2 | 0.00 | 0.05 | 0.00 | 82 | 1018.2 |
| 20260506124521 | 13 | 333 | 0.0 | 3.2 | 0.00 | 0.05 | 0.00 | 82 | 1018.1 |
| 20260506123020 | 13 | 333 | 0.0 | 3.2 | 0.00 | 0.05 | 0.00 | 82 | 1018.1 |
| 20260506121519 | 13 | 333 | 0.0 | 6.4 | 0.00 | 0.05 | 0.00 | 82 | 1018.1 |
| 20260506120018 | 13 | 333 | 0.0 | 6.4 | 0.00 | 0.05 | 0.00 | 82 | 1018.1 |
| 20260506114521 | 13 | 333 | 0.0 | 4.8 | 0.00 | 0.08 | 0.00 | 82 | 1018.0 |
| 20260506113016 | 13 | 333 | 0.0 | 4.8 | 0.00 | 0.08 | 0.00 | 82 | 1017.8 |
| 20260506111515 | 13 | 333 | 0.0 | 4.8 | 0.00 | 0.08 | 0.00 | 82 | 1017.7 |
| 20260506110015 | 13 | 333 | 0.0 | 1.6 | 0.00 | 0.08 | 0.00 | 83 | 1017.6 |
| 20260506104513 | 13 | 333 | 0.0 | 3.2 | 0.00 | 0.10 | 0.00 | 83 | 1017.5 |
| 20260506103010 | 13 | 333 | 0.0 | 1.6 | 0.00 | 0.10 | 0.00 | 83 | 1017.5 |
| 20260506101504 | 13 | 333 | 0.0 | 0.0 | 0.00 | 0.10 | 0.00 | 83 | 1017.5 |
| 20260506100003 | 13 | 333 | 0.0 | 1.6 | 0.00 | 0.10 | 0.00 | 82 | 1017.5 |
| 20260506094505 | 13 | 333 | 0.0 | 0.0 | 0.00 | 0.10 | 0.00 | 81 | 1017.5 |
| 20260506093105 | 13 | 333 | 0.0 | 0.0 | 0.00 | 0.10 | 0.00 | 81 | 1017.5 |
| 20260506091558 | 13 | 333 | 0.0 | 3.2 | 0.00 | 0.10 | 0.00 | 82 | 1017.5 |
| 20260506084557 | 13 | 333 | 0.0 | 4.8 | 0.00 | 0.10 | 0.00 | 82 | 1017.5 |
| 20260506083056 | 13 | 333 | 0.0 | 3.2 | 0.00 | 0.10 | 0.00 | 82 | 1017.5 |
| 20260506081555 | 13 | 333 | 0.0 | 4.8 | 0.00 | 0.10 | 0.00 | 82 | 1017.6 |
| 20260506073048 | 14 | 333 | 0.0 | 3.2 | 0.00 | 0.10 | 0.00 | 81 | 1017.4 |
| 20260506071600 | 14 | 333 | 1.6 | 6.4 | 0.00 | 0.10 | 0.00 | 80 | 1017.2 |
| 20260506061538 | 15 | 333 | 1.6 | 8.0 | 0.00 | 0.10 | 0.10 | 80 | 1016.9 |
| 20260506044531 | 15 | 336 | 3.2 | 12.9 | 0.00 | 0.10 | 0.10 | 79 | 1016.3 |
| 20260506043030 | 15 | 333 | 3.2 | 14.5 | 0.00 | 0.10 | 0.10 | 78 | 1016.1 |
| 20260506041532 | 15 | 355 | 4.8 | 12.9 | 0.00 | 0.10 | 0.10 | 77 | 1016.0 |
| 20260506040028 | 15 | 335 | 4.8 | 16.1 | 0.00 | 0.10 | 0.10 | 77 | 1015.8 |
| 20260506034524 | 15 | 336 | 4.8 | 12.9 | 0.00 | 0.10 | 0.10 | 77 | 1015.5 |
| 20260506033028 | 15 | 339 | 4.8 | 12.9 | 0.00 | 0.10 | 0.10 | 77 | 1015.4 |
| 20260506031525 | 15 | 340 | 4.8 | 14.5 | 0.00 | 0.10 | 0.10 | 76 | 1015.2 |
| 20260506030024 | 15 | 344 | 3.2 | 8.0 | 0.00 | 0.10 | 0.10 | 75 | 1015.0 |
| 20260506024519 | 16 | 344 | 1.6 | 12.9 | 0.00 | 0.10 | 0.10 | 75 | 1014.9 |
| 20260506023018 | 16 | 343 | 3.2 | 9.7 | 0.00 | 0.10 | 0.10 | 74 | 1014.8 |
| 20260506021517 | 16 | 342 | 0.0 | 9.7 | 0.00 | 0.10 | 0.10 | 73 | 1014.6 |
| 20260506020022 | 16 | 342 | 1.6 | 8.0 | 0.00 | 0.10 | 0.10 | 72 | 1014.5 |
| 20260506014519 | 16 | 343 | 1.6 | 9.7 | 0.00 | 0.10 | 0.10 | 72 | 1014.4 |
| 20260506013024 | 16 | 347 | 1.6 | 9.7 | 0.00 | 0.10 | 0.10 | 72 | 1014.5 |
| 20260506011516 | 16 | 334 | 0.0 | 14.5 | 0.00 | 0.10 | 0.10 | 71 | 1014.5 |
| 20260506010023 | 16 | 325 | 1.6 | 9.7 | 0.00 | 0.10 | 0.10 | 71 | 1014.5 |
| 20260506004519 | 16 | 329 | 8.0 | 14.5 | 0.00 | 0.10 | 0.10 | 70 | 1014.4 |
| 20260506003014 | 17 | 331 | 3.2 | 16.1 | 0.00 | 0.10 | 0.10 | 70 | 1014.3 |
| 20260506001514 | 17 | 341 | 1.6 | 12.9 | 0.00 | 0.10 | 0.10 | 69 | 1014.2 |
| 20260506000018 | 17 | 344 | 1.6 | 12.9 | 0.00 | 0.10 | 0.10 | 68 | 1014.0 |
| 20260505234517 | 17 | 9 | 1.6 | 9.7 | 0.00 | 0.10 | 0.10 | 68 | 1014.0 |
| 20260505233011 | 17 | 331 | 1.6 | 9.7 | 0.00 | 0.10 | 0.10 | 67 | 1014.1 |
| 20260505231602 | 17 | 329 | 3.2 | 12.9 | 0.00 | 0.10 | 0.10 | 68 | 1014.2 |
| 20260505230118 | 17 | 336 | 4.8 | 12.9 | 0.00 | 0.10 | 0.10 | 68 | 1014.2 |
| 20260505224558 | 17 | 340 | 1.6 | 16.1 | 0.00 | 0.10 | 0.10 | 69 | 1014.1 |
| 20260505223100 | 17 | 336 | 1.6 | 14.5 | 0.00 | 0.10 | 0.10 | 68 | 1014.2 |
| 20260505221559 | 17 | 334 | 6.4 | 17.7 | 0.00 | 0.10 | 0.10 | 67 | 1014.2 |
| 20260505220051 | 17 | 9 | 3.2 | 17.7 | 0.00 | 0.10 | 0.10 | 69 | 1014.4 |
| 20260505214559 | 17 | 325 | 3.2 | 20.9 | 0.00 | 0.10 | 0.10 | 69 | 1014.5 |
| 20260505213055 | 17 | 342 | 1.6 | 8.0 | 0.00 | 0.10 | 0.10 | 69 | 1014.6 |
| 20260505211544 | 17 | 319 | 3.2 | 9.7 | 0.00 | 0.10 | 0.10 | 68 | 1014.6 |
| 20260505210043 | 17 | 347 | 1.6 | 14.5 | 0.00 | 0.10 | 0.10 | 69 | 1014.7 |
| 20260505204542 | 17 | 294 | 3.2 | 16.1 | 0.00 | 0.10 | 0.10 | 69 | 1014.7 |
| 20260505203045 | 17 | 342 | 1.6 | 9.7 | 0.00 | 0.10 | 0.10 | 70 | 1014.6 |
| 20260505201549 | 17 | 114 | 0.0 | 9.7 | 0.00 | 0.10 | 0.10 | 73 | 1014.7 |
| 20260505200035 | 16 | 207 | 3.2 | 14.5 | 0.00 | 0.10 | 0.10 | 74 | 1014.8 |
| 20260505194534 | 16 | 298 | 1.6 | 12.9 | 0.03 | 0.10 | 0.10 | 75 | 1014.9 |
| 20260505193043 | 16 | 324 | 3.2 | 9.7 | 0.03 | 0.10 | 0.10 | 77 | 1014.9 |
| 20260505191524 | 15 | 329 | 1.6 | 9.7 | 0.03 | 0.10 | 0.10 | 79 | 1014.9 |
| 20260505190030 | 15 | 300 | 1.6 | 9.7 | 0.03 | 0.10 | 0.10 | 80 | 1014.7 |
| 20260505184524 | 15 | 255 | 1.6 | 12.9 | 0.00 | 0.08 | 0.08 | 84 | 1014.7 |
| 20260505183026 | 15 | 284 | 1.6 | 11.3 | 0.03 | 0.08 | 0.08 | 87 | 1014.8 |
| 20260505181517 | 14 | 309 | 0.0 | 8.0 | 0.03 | 0.08 | 0.08 | 90 | 1014.8 |